SERT 2

Satellite information

Favourite Embed

Satellite Type and Status

PAYLOADIN ORBIT

Key statistics

Satellite SERT 2 at a glance.

Uptime

20243

Days in orbit

Revolutions

≈ 13.6

Per day

Orbit

SSO

Sun Synchronous Orbit

Inclination

99.2

Latest

Satellite identification and parameters

Extended collection of information and parameters for SERT 2.

Object identification

Identified? True

Debris? False

Object name: SERT 2

International designator: 1970-009A

Object number (NORAD): 4327

Object ID (CCSDS): 4327

Country: UNITED STATES OF AMERICA (US)

Current information (Y/N): Y

RCS size: LARGE

Orbital parameters

Period: 105.984 minutes

Inclination: 99.24 deg

SMA: 7418.566 km

Apoapsis: 1044.77 km

Periapsis: 1036.092 km

RAAN: 139.4631 deg

Eccentricy: 0.0005849

Argument of periapsis: 76.1307 deg

Mean anomaly: 33.5727 deg

Mean motion: 13.58697576 rev/day

Mean motion (dot): -0.00000017 rev/day2

B* drag term: 0.000032174 1/REarth

Two-line elements (TLE)

Creation date: July 6, 2025, 6:05 p.m.

Reference frame: TEME

Reference center: EARTH

Epoch: July 6, 2025, 11:08 a.m. UTC

TLE line 0: 0 SERT 2

TLE line 1: 1 04327U 70009A 25187.46445826 -.00000017 00000-0 32174-4 0 9994

TLE line 2: 2 04327 99.2400 139.4631 0005849 76.1307 33.5727 13.58697576746459

Live tracking on map

Real-time ground track for satellite SERT 2.

In-orbit conjunctions

A list of the most updated potential collisions computed for object SERT 2.

Target Orbit TCA Probability of collision Miss distance Type
COSMOS 1275 DEB LEO 2025-04-09 03:00:49 0.0001268376 193.0 (m) DEBRIS
COSMOS 249 DEB LEO 2025-03-26 10:17:11 0.0001361214 214.0 (m) DEBRIS
DELTA 1 DEB LEO 2024-08-31 13:33:41 0.0002745669 802.0 (m) DEBRIS

Associated space launch

Satellite designed to test a new ion thruster system.

SERT 2 was lifted into orbit during the mission ‘Thorad SLV-2G Agena D | SERT 2’, on board a Thorad SLV-2G Agena D space rocket.

The launch took place on Feb. 4, 1970, 2:59 a.m. from Space Launch Complex 2E.

For more information about the launch, click the button.

Launch to space Thorad SLV-2G Agena D | SERT 2
Thorad SLV-2G Agena D | SERT 2

Agency: N/A

Status: Launch Successful

Launch date: Feb. 4, 1970, 2:59 a.m. UTC

Rocket: Thorad SLV-2G Agena D

Launch pad: Space Launch Complex 2E

Location: Vandenberg SFB, CA, USA

...

Latest news about this satellite

There are no fresh news available about this satellite. Check back as we update our databases every day.


Newsletter sign-up

Weekly statistics, charts and insights to help you stay on top of the space industry.